Theta_e
343 345 345 345 342 338 337 338 334 337 338 338 338 338 337 337 338 338 336 333 330 330 328 328 327 328 325 323 322 320 319 318 313 314 318 320 322 320 320 322 328 330 330
332 329 329 333 336 336 337 338 339 338 336 334 335 334 334 334 336 335 332 327 327 325 325 326 325 325 325 325 322 319 318 317 316 312 315 317 318 319 323 321 320 324 330
326 326 326 327 327 329 328 329 331 331 332 333 332 331 331 331 331 332 330 328 327 326 325 325 324 324 322 321 321 320 320 320 319 315 313 316 316 316 315 319 321 321 330
323 324 324 325 326 326 325 325 326 327 327 327 327 327 327 326 325 325 326 326 327 327 327 326 325 323 322 322 322 321 320 319 318 316 315 314 315 314 313 312 314 320 318
318 320 321 322 324 323 323 323 323 325 323 323 322 322 322 322 321 321 321 320 320 321 323 324 323 324 321 320 321 320 320 318 316 315 313 313 309 307 307 310 309 313 316
315 314 316 317 318 320 319 319 322 321 321 320 318 318 317 317 308 307 309 312 313 313 313 315 316 317 318 314 313 313 315 316 314 313 312 310 309 308 309 308 309 310 309
313 313 313 315 314 316 316 316 316 317 318 316 315 314 314 315 306 302 303 308 309 309 309 310 310 312 312 314 312 310 310 308 309 314 312 312 311 310 310 310 310 310 310
312 312 312 311 311 312 312 312 314 315 314 312 313 313 312 313 304 299 299 308 309 309 310 310 310 310 311 308 307 307 308 310 313 313 311 312 313 313 314 312 311 312 313
309 310 310 309 309 309 308 310 311 311 310 310 310 310 311 311 297 296 298 301 302 302 303 304 304 303 301 298 302 303 303 304 307 306 305 304 302 301 307 307 305 306 306
308 308 309 308 308 307 308 308 309 309 309 309 307 307 306 306 301 298 297 298 297 299 300 301 300 300 298 297 301 301 300 301 303 307 312 306 305 306 301 309 310 307 307
308 307 307 307 307 308 309 309 307 305 305 305 303 303 302 302 302 296 295 297 297 297 298 299 300 298 296 295 295 301 303 304 303 305 308 309 310 311 312 314 314 313 310
306 306 306 306 306 304 303 303 302 301 300 300 299 298 297 299 299 297 295 294 296 295 295 297 299 296 294 294 295 297 296 297 302 303 305 306 306 307 309 311 314 316 318
304 304 302 300 300 299 297 297 296 296 295 294 295 296 297 299 299 297 295 294 294 295 297 298 294 293 293 296 295 295 295 300 302 302 303 304 306 308 309 309 311 315 318
298 297 296 295 295 295 293 293 292 292 292 294 294 294 294 295 295 297 297 297 296 296 297 296 295 293 294 296 297 300 301 302 300 301 302 304 307 309 308 312 312 314 314
293 292 291 291 290 289 291 291 291 292 292 293 293 293 292 292 294 294 293 293 293 293 293 292 292 294 295 297 303 304 303 304 301 302 303 305 306 305 306 311 312 312 311
288 289 288 288 289 289 289 290 292 292 292 291 291 292 294 293 292 292 291 291 291 290 290 290 290 292 295 297 301 302 303 302 303 305 306 306 305 307 309 311 312 310 309
286 286 287 287 287 288 289 290 290 293 294 293 292 291 291 291 291 290 290 290 289 289 289 290 290 293 297 299 301 302 303 306 305 304 307 308 310 309 307 310 311 311 309
286 287 287 288 289 290 290 290 290 290 290 292 293 292 291 290 289 289 289 290 291 290 290 290 292 294 297 300 302 302 303 304 305 308 310 310 310 309 309 309 310 310 311
287 288 289 289 290 291 291 291 291 290 291 290 290 290 290 289 289 290 291 292 291 292 293 294 295 296 299 301 303 303 303 307 308 310 310 309 311 311 311 312 312 298 302
289 288 289 289 289 288 289 287 287 288 289 288 288 287 288 287 287 290 294 294 294 294 295 296 297 300 301 302 303 304 307 307 308 310 310 310 311 312 311 311 310 311 311
288 290 286 288 287 287 286 285 285 285 286 286 287 287 285 285 287 288 290 293 294 294 295 296 298 299 302 304 304 306 308 308 309 310 311 311 312 311 311 311 310 312 314
290 290 289 287 288 287 287 286 285 285 285 285 285 286 285 286 286 287 288 290 292 297 298 297 299 302 303 303 303 305 309 308 311 312 310 311 310 310 311 311 310 310 314
289 289 287 287 287 286 286 286 285 285 284 284 284 284 285 285 285 286 287 289 290 293 299 300 300 301 303 304 304 306 306 308 309 311 312 312 312 311 310 310 310 310 315
289 290 289 287 287 286 286 285 285 286 287 286 285 285 285 285 285 286 286 287 289 292 296 301 301 301 303 304 305 303 300 301 304 304 307 311 312 312 312 315 315 315 315
289 290 289 287 286 287 285 285 285 286 286 286 286 286 285 285 284 285 286 287 288 289 292 296 301 302 301 303 304 304 294 288 297 291 302 304 305 313 317 316 317 317 316
290 290 289 290 288 290 287 287 287 287 287 286 286 287 286 284 284 284 285 286 286 287 289 292 296 300 303 303 297 292 290 290 296 288 298 303 306 311 317 315 317 316 316
Wind_Speed
7 4 3 4 4 3 9 4 3 3 10 7 7 6 7 7 7 6 6 6 6 6 7 7 7 5 4 4 4 4 5 4 9 6 4 6 6 10 11 8 8 8 6
10 12 11 11 5 4 3 3 4 5 3 4 7 7 8 9 8 9 9 9 8 10 10 9 9 8 8 8 7 9 8 7 8 14 8 8 8 8 5 7 8 10 8
10 10 10 10 11 11 10 10 11 11 10 8 7 6 5 5 5 6 9 11 12 13 11 11 10 10 11 10 9 9 8 7 6 8 10 5 6 8 11 8 7 9 5
7 8 8 7 6 7 7 7 7 7 7 6 6 6 6 7 8 8 9 8 8 9 8 11 12 13 13 11 11 13 11 10 10 11 11 10 8 7 3 6 7 5 7
9 6 5 5 5 5 5 5 6 5 5 6 8 8 8 8 8 7 7 9 10 11 10 11 13 13 10 12 11 12 13 11 11 11 12 10 5 2 3 4 9 10 8
5 5 5 6 5 4 4 4 3 4 5 5 6 9 10 9 13 15 9 9 11 11 12 12 13 16 15 14 14 15 15 14 15 13 13 13 11 6 6 6 9 9 10
7 8 7 6 6 4 4 5 6 6 6 7 8 10 11 11 12 11 11 10 11 11 12 11 12 12 13 14 15 14 15 19 20 19 20 19 15 8 6 6 7 8 9
9 9 9 9 8 9 9 8 7 6 8 8 9 10 11 10 11 9 11 8 10 11 11 12 13 14 13 11 13 13 14 15 14 10 13 15 13 7 6 6 9 9 7
11 10 10 11 10 10 9 9 8 9 9 9 11 12 11 10 8 6 10 10 10 11 11 12 11 11 12 13 15 18 18 16 13 18 18 12 9 9 9 1 6 7 9
11 10 10 10 10 10 10 10 9 9 10 8 11 11 13 13 13 13 9 8 12 10 11 12 15 16 19 17 14 13 14 13 14 15 13 9 9 10 13 9 6 6 9
11 11 11 10 11 11 10 8 10 10 10 10 10 10 12 12 11 11 10 6 7 8 8 9 9 12 12 12 15 11 11 9 12 13 11 9 7 11 10 9 6 7 10
11 11 11 11 10 10 12 10 10 10 11 10 10 9 9 10 10 11 12 13 14 9 10 9 10 10 13 17 13 15 14 8 7 10 10 8 8 8 9 5 6 9 11
10 10 11 13 12 10 10 11 10 9 7 8 9 8 8 8 9 12 9 12 13 9 8 10 9 13 16 16 20 20 19 10 9 9 9 10 6 6 6 6 10 13 13
12 11 11 11 11 11 9 7 7 8 7 8 8 8 9 9 9 8 7 6 8 9 10 7 11 15 18 18 17 12 9 9 9 9 8 8 8 5 5 8 10 8 7
12 11 11 9 10 9 8 8 8 9 9 9 9 9 9 10 10 12 13 11 10 11 10 8 8 8 9 9 9 8 7 6 7 9 9 8 7 7 10 9 7 7 7
10 7 7 7 7 7 8 8 11 14 16 17 18 15 10 13 18 20 20 21 21 17 7 6 6 8 9 9 6 8 4 8 11 9 7 7 8 9 6 4 4 9 7
8 8 7 8 6 7 7 7 9 7 12 12 13 8 7 13 15 17 20 17 13 6 5 5 6 8 9 9 7 5 6 5 5 5 10 8 3 4 5 4 1 2 4
8 14 7 7 7 7 6 6 6 7 9 9 8 9 10 14 19 20 17 9 4 3 4 6 7 7 9 7 6 5 6 7 7 7 5 5 3 3 2 2 4 6 5
7 6 6 6 6 7 5 5 5 6 6 6 8 7 9 17 18 17 10 4 4 5 5 5 6 7 8 7 4 6 9 6 5 2 3 5 2 2 4 5 4 3 3
5 8 7 5 5 6 6 6 6 7 6 6 7 8 10 12 9 9 8 5 5 5 5 5 7 8 8 8 4 7 4 5 4 1 2 3 2 2 5 5 3 3 4
6 3 3 3 5 5 6 6 6 6 7 7 7 8 12 8 8 8 9 8 5 5 5 6 7 7 8 7 5 6 4 4 3 2 3 2 2 3 3 1 8 6 10
5 7 7 7 6 6 6 6 6 7 8 8 8 9 12 7 8 8 9 9 10 7 4 4 7 7 8 6 8 10 4 4 3 3 3 3 4 3 2 5 8 6 10
6 7 7 6 6 7 7 7 7 8 8 8 8 8 9 8 8 9 9 9 9 10 6 3 5 6 6 6 8 8 8 6 6 5 3 2 3 5 5 10 12 14 10
6 8 9 9 8 8 9 9 8 9 8 7 7 9 9 9 9 10 9 9 9 9 10 8 7 9 8 6 6 6 6 7 6 6 7 1 6 12 11 11 3 8 9
5 8 9 9 8 9 9 10 10 10 10 10 10 9 9 10 10 11 10 9 9 9 11 11 9 10 11 15 8 3 5 7 8 8 7 8 13 11 4 5 6 5 11
6 9 7 8 5 9 9 9 9 9 9 10 11 10 11 11 10 10 11 11 10 10 11 9 12 18 15 9 12 10 11 8 6 7 7 8 10 11 6 6 1 4 9
Wind_Direction
63 47 32 62 78 360 82 309 185 277 139 136 129 157 182 194 202 198 214 233 229 212 223 231 230 238 240 250 264 260 257 259 285 291 308 311 321 311 297 292 276 262 254
56 51 36 26 55 72 112 77 63 104 78 79 151 186 196 201 198 206 208 222 222 226 225 223 221 224 223 227 234 246 252 258 268 280 279 274 261 269 286 291 282 285 267
52 45 39 29 28 24 30 17 15 9 14 13 1 332 298 272 243 227 222 225 231 236 233 235 231 225 232 236 240 249 247 249 248 272 279 279 284 294 286 282 289 294 260
77 77 57 36 36 24 20 9 9 8 1 345 327 315 305 302 301 295 288 277 265 262 246 239 239 237 241 240 236 241 242 248 255 260 265 267 262 246 269 286 297 322 320
3 51 68 28 19 30 23 359 343 335 321 318 312 308 303 297 286 299 326 334 325 314 303 285 271 265 269 254 255 253 250 248 250 257 263 263 240 298 301 306 303 299 288
346 338 0 19 3 348 311 275 286 300 311 307 297 300 301 301 308 319 319 308 298 298 298 296 294 295 294 276 254 247 252 264 260 252 256 257 259 256 264 270 284 294 298
328 327 330 326 308 307 322 325 335 330 320 308 303 298 290 287 280 294 303 302 305 298 292 290 289 289 306 303 298 288 271 259 256 261 259 252 252 226 230 253 267 272 280
319 319 323 325 334 338 338 328 325 323 306 302 298 292 287 285 289 344 1 312 301 298 294 290 287 284 281 294 307 304 300 296 287 260 258 261 260 237 213 219 243 258 270
315 323 331 337 331 325 316 315 311 310 310 306 299 292 295 310 80 62 349 326 308 301 298 296 298 293 282 288 292 289 284 281 290 275 254 236 239 226 234 179 251 263 275
316 326 329 322 316 316 317 311 300 292 295 316 322 315 311 315 328 316 304 304 294 291 290 277 266 265 272 266 263 264 270 281 274 281 282 252 209 247 240 209 224 245 266
325 319 318 321 316 304 301 333 335 322 314 311 308 309 297 287 299 321 303 290 287 296 297 297 293 295 303 298 270 260 257 276 278 273 262 267 247 220 223 210 202 236 254
314 313 315 318 329 337 334 328 323 316 308 298 292 297 293 284 274 267 267 271 277 274 278 280 278 294 311 301 288 273 273 266 271 262 256 242 240 247 247 236 239 250 242
309 332 347 342 330 333 331 324 315 309 311 301 290 293 303 309 313 314 289 273 272 273 274 282 328 313 293 291 265 252 253 259 260 264 251 247 253 251 243 263 261 253 251
340 335 330 325 325 320 318 298 292 286 297 294 304 305 299 298 299 297 303 315 298 293 299 291 301 290 276 271 272 263 245 243 239 244 250 251 252 245 251 255 238 225 224
331 322 313 314 310 297 288 298 294 287 278 293 291 289 291 288 289 295 295 294 288 279 287 285 285 281 283 282 270 263 261 256 229 239 246 251 253 259 270 240 224 228 204
315 309 303 293 289 292 293 294 269 261 270 271 268 262 279 276 289 291 294 294 288 278 267 265 279 281 278 277 289 289 287 274 259 242 237 240 249 232 215 197 244 189 181
299 291 289 291 282 289 289 291 301 308 279 281 284 294 311 305 305 312 306 302 300 277 245 258 266 273 277 280 293 285 299 296 274 262 250 238 215 178 194 156 149 13 162
286 287 286 289 290 294 299 308 306 314 322 326 346 342 331 325 324 317 310 311 300 230 250 264 267 272 273 288 286 318 304 291 276 272 208 146 149 186 263 226 281 267 238
298 298 302 300 293 298 303 311 324 320 318 334 324 334 337 336 325 311 304 282 295 302 282 262 266 265 273 282 286 291 276 278 305 251 199 155 169 296 241 221 216 198 182
300 305 308 344 356 352 351 353 339 337 336 338 343 344 342 338 338 334 329 319 316 307 303 301 297 296 289 288 287 280 284 294 308 227 146 125 128 28 6 343 16 356 299
304 290 24 10 10 8 3 357 351 346 347 347 345 342 334 327 331 331 331 327 323 310 310 314 303 308 316 310 321 312 278 287 289 49 118 59 67 55 69 242 303 320 290
339 33 29 17 17 10 7 8 4 0 356 350 344 343 341 343 340 337 333 332 332 320 306 281 307 328 313 346 340 330 304 303 48 78 80 41 347 359 353 291 277 251 233
52 55 49 40 28 22 21 17 13 11 4 358 351 349 351 349 344 340 336 333 331 328 320 286 304 305 329 339 339 341 348 53 51 32 32 114 242 261 236 257 250 260 215
5 51 48 42 30 29 24 19 13 2 358 355 358 2 356 352 347 344 341 335 335 335 330 330 329 322 322 335 345 4 12 7 28 12 6 22 284 285 260 249 122 101 94
25 46 47 38 32 31 27 23 18 11 9 3 10 5 2 358 356 352 346 343 341 339 340 337 333 336 343 334 325 24 2 36 23 356 356 342 316 316 6 22 39 91 108
59 58 33 48 25 35 32 25 17 16 16 12 3 5 4 2 359 358 351 352 348 346 346 344 346 345 336 356 8 358 338 358 25 1 344 333 329 332 356 0 25 231 139